N2ADK Weather Reports


Display with metric or nautical units.
time (UTC)temp
F
wind
direction
speed
MPH
gust
MPH
rain 1hr
in
rain 24hr
in
rain mn
in
humidity
%
barometer
mb
20260506151016 45 0 0.0 0.0 0.02 0.66 0.34 95 1007.2
20260506150519 45 0 0.0 0.0 0.02 0.66 0.34 95 1007.4
20260506150029 45 0 0.0 0.0 0.03 0.66 0.34 96 1007.7
20260506145517 45 0 0.0 0.0 0.03 0.66 0.34 96 1007.7
20260506145017 45 0 0.0 0.0 0.04 0.66 0.34 96 1007.6
20260506144534 45 0 0.0 0.0 0.04 0.66 0.34 96 1007.6
20260506144017 45 0 0.0 0.0 0.05 0.66 0.34 95 1007.6
20260506143517 45 0 0.0 0.0 0.06 0.66 0.34 96 1007.6
20260506143032 45 0 0.0 0.0 0.07 0.65 0.33 96 1007.4
20260506142520 45 0 0.0 0.0 0.08 0.65 0.33 95 1007.5
20260506142019 45 0 0.0 0.0 0.09 0.65 0.33 96 1007.4
20260506141532 45 0 0.0 0.0 0.09 0.64 0.32 100 1007.5
20260506141020 45 0 0.0 0.0 0.10 0.64 0.32 96 1007.4
20260506140517 45 0 0.0 0.0 0.11 0.64 0.32 96 1007.4
20260506140034 45 0 0.0 0.0 0.11 0.63 0.31 96 1007.4
20260506135518 45 0 0.0 0.0 0.11 0.63 0.31 96 1007.4
20260506135020 45 0 0.0 0.0 0.10 0.62 0.30 96 1007.5
20260506134531 45 0 0.0 0.0 0.11 0.62 0.30 96 1007.6
20260506134017 45 0 0.0 0.0 0.11 0.61 0.29 96 1007.6
20260506133517 45 0 0.0 0.0 0.09 0.58 0.27 95 1007.7
20260506133033 45 0 0.0 0.0 0.09 0.58 0.26 96 1007.6
20260506132520 45 0 0.0 0.0 0.09 0.57 0.25 96 1007.6
20260506132017 45 0 0.0 0.0 0.09 0.56 0.24 95 1007.6
20260506131535 45 0 0.0 0.0 0.09 0.55 0.23 95 1007.6
20260506131018 45 0 0.0 0.0 0.09 0.54 0.22 95 1007.6
20260506130519 45 0 0.0 0.0 0.08 0.52 0.21 95 1007.6
20260506130030 45 0 0.0 0.0 0.08 0.52 0.20 95 1007.5
20260506125516 45 0 0.0 0.0 0.08 0.52 0.20 95 1007.4
20260506125016 45 0 0.0 0.0 0.08 0.52 0.20 100 1007.4
20260506124530 45 0 0.0 0.0 0.07 0.51 0.19 95 1007.4
20260506124019 45 0 0.0 0.0 0.07 0.50 0.18 100 1007.4
20260506123520 45 0 0.0 0.0 0.06 0.49 0.17 96 1007.3
20260506123030 45 0 0.0 0.0 0.06 0.49 0.17 95 1007.2
20260506122514 45 0 0.0 0.0 0.06 0.48 0.16 96 1007.3
20260506122017 45 0 0.0 0.0 0.05 0.47 0.15 96 1007.4
20260506121530 45 0 0.0 0.0 0.04 0.46 0.14 95 1007.4
20260506121017 45 0 0.0 0.0 0.04 0.45 0.13 95 1007.4
20260506120517 46 0 0.0 0.0 0.04 0.45 0.13 95 1007.4
20260506120034 46 0 0.0 0.0 0.04 0.44 0.12 96 1007.4
20260506115516 46 0 0.0 0.0 0.04 0.44 0.12 96 1007.4
20260506115017 46 0 0.0 0.0 0.04 0.44 0.12 96 1007.4
20260506114530 46 0 0.0 0.0 0.05 0.44 0.12 96 1007.3
20260506114017 46 0 0.0 0.0 0.05 0.43 0.11 95 1007.5
20260506113516 46 0 0.0 0.0 0.05 0.43 0.11 96 1007.5
20260506113032 46 0 0.0 0.0 0.05 0.42 0.10 96 1007.7
20260506112521 46 0 0.0 0.0 0.05 0.42 0.10 96 1007.9
20260506112020 46 0 0.0 0.0 0.06 0.42 0.10 96 1007.8
20260506111534 45 0 0.0 0.0 0.05 0.41 0.09 96 1007.8
20260506111019 45 0 0.0 0.0 0.05 0.41 0.09 95 1007.9
20260506110517 45 0 0.0 0.0 0.04 0.40 0.08 95 1007.9
20260506110034 45 0 0.0 0.0 0.04 0.40 0.08 95 1007.9
20260506105517 45 0 0.0 0.0 0.04 0.41 0.08 95 1007.8
20260506105017 46 0 0.0 0.0 0.04 0.41 0.08 95 1007.6
20260506104529 46 0 0.0 0.0 0.04 0.40 0.07 95 1007.6
20260506104021 46 0 0.0 0.0 0.03 0.39 0.06 95 1007.8
20260506103517 46 0 0.0 0.0 0.03 0.39 0.06 95 1008.0
20260506103033 46 0 0.0 0.0 0.02 0.38 0.05 95 1007.7
20260506102517 47 0 0.0 0.0 0.03 0.38 0.05 95 1008.1
20260506102017 47 0 0.0 0.0 0.02 0.37 0.04 96 1008.2
20260506101530 48 0 0.0 0.0 0.02 0.37 0.04 96 1008.3
20260506101013 48 0 0.0 0.0 0.03 0.37 0.04 96 1008.4
20260506100516 48 0 0.0 0.0 0.03 0.37 0.04 100 1008.0
20260506100034 48 0 0.0 0.0 0.03 0.37 0.04 96 1008.1
20260506095514 48 0 0.0 0.0 0.04 0.37 0.04 96 1008.0
20260506095018 48 0 0.0 0.0 0.04 0.37 0.04 96 1007.9
20260506094530 48 0 0.0 0.0 0.03 0.36 0.03 96 1007.9
20260506094014 48 0 0.0 0.0 0.03 0.36 0.03 100 1007.9
20260506093521 48 0 0.0 0.0 0.03 0.36 0.03 96 1007.8
20260506093033 48 0 0.0 0.0 0.03 0.36 0.03 100 1007.9
20260506092518 48 0 0.0 0.0 0.02 0.35 0.02 96 1007.8
20260506092017 48 0 0.0 0.0 0.02 0.35 0.02 96 1008.4
20260506091532 48 0 0.0 0.0 0.02 0.35 0.02 96 1008.2
20260506091020 48 0 0.0 0.0 0.01 0.34 0.01 96 1008.3
20260506090513 48 0 0.0 0.0 0.01 0.34 0.01 96 1008.2
20260506090030 48 0 0.0 0.0 0.01 0.34 0.01 96 1008.3
20260506085516 48 0 0.0 0.0 0.00 0.33 0.00 96 1008.3
20260506085016 48 0 0.0 0.0 0.00 0.33 0.00 96 1008.5
20260506084537 48 0 0.0 0.0 0.00 0.33 0.00 96 1008.5
20260506084017 48 0 0.0 0.0 0.00 0.33 0.00 96 1008.3
20260506083514 48 0 0.0 0.0 0.00 0.33 0.00 96 1008.2
20260506083033 48 0 0.0 0.0 0.00 0.33 0.00 96 1008.1
20260506082514 48 0 0.0 0.0 0.00 0.33 0.00 96 1008.0
20260506082015 48 0 0.0 0.0 0.00 0.33 0.00 96 1008.1
20260506081537 48 0 0.0 0.0 0.00 0.33 0.00 96 1008.1
20260506081017 48 0 0.0 0.0 0.00 0.33 0.00 96 1008.0
20260506080517 48 0 0.0 0.0 0.00 0.33 0.00 96 1007.9
20260506073030 48 0 0.0 0.0 0.00 0.33 0.00 96 1008.1
20260506072516 48 0 0.0 0.0 0.00 0.33 0.00 95 1008.1
20260506072014 48 0 0.0 0.0 0.00 0.33 0.00 96 1008.2
20260506071532 48 0 0.0 0.0 0.00 0.33 0.00 95 1008.5
20260506071017 48 0 0.0 0.0 0.00 0.33 0.00 96 1008.5
20260506070517 48 0 0.0 0.0 0.00 0.33 0.00 96 1008.1
20260506062517 48 0 0.0 0.0 0.00 0.33 0.00 95 1009.2
20260506062017 48 0 0.0 0.0 0.00 0.33 0.00 95 1009.6
20260506061531 48 0 0.0 0.0 0.00 0.33 0.00 95 1009.0
20260506061019 48 0 0.0 0.0 0.00 0.33 0.00 95 1009.0
20260506060514 48 0 0.0 0.0 0.00 0.33 0.00 95 1009.5
20260506051017 49 0 0.0 0.0 0.00 0.33 0.00 95 1010.2
20260506050520 49 0 0.0 0.0 0.00 0.33 0.00 94 1010.1
20260506045016 49 0 0.0 0.0 0.00 0.33 0.00 94 1010.1
20260506044530 49 0 0.0 0.0 0.00 0.33 0.00 94 1009.9
20260506044016 49 0 0.0 0.0 0.00 0.33 0.00 94 1010.0
20260506043518 49 0 0.0 0.0 0.00 0.33 0.00 94 1010.2
20260506043031 49 0 0.0 0.0 0.00 0.33 0.00 94 1010.2
20260506042516 49 0 0.0 0.0 0.01 0.33 0.00 94 1010.2
20260506042016 49 0 0.0 0.0 0.02 0.33 0.00 94 1010.1
20260506041550 49 0 0.0 0.0 0.03 0.33 0.00 94 1010.2
20260506041119 49 0 0.0 0.0 0.05 0.33 0.00 94 1010.4
20260506040517 49 0 0.0 0.0 0.06 0.33 0.00 94 1010.4
20260506040033 49 0 0.0 0.0 0.06 0.33 0.00 94 1010.7
20260506035518 49 0 0.0 0.0 0.06 0.33 0.33 94 1010.5
20260506035018 49 0 0.0 0.0 0.06 0.33 0.33 94 1010.8
20260506034546 49 0 0.0 0.0 0.06 0.33 0.33 94 1010.7
20260506034021 49 0 0.0 0.0 0.06 0.33 0.33 93 1010.8
20260506033519 49 0 0.0 0.0 0.06 0.33 0.33 93 1010.9
20260506033028 50 0 0.0 0.0 0.06 0.33 0.33 93 1010.7
20260506032516 50 0 0.0 0.0 0.05 0.32 0.32 93 1010.6
20260506032016 50 0 0.0 0.0 0.04 0.31 0.31 93 1010.4
20260506031533 50 0 0.0 0.0 0.02 0.29 0.29 92 1010.6
20260506031015 50 0 0.0 0.0 0.01 0.28 0.28 92 1010.5
20260506030515 50 0 0.0 0.0 0.00 0.27 0.27 92 1010.6
20260506030032 50 0 0.0 0.0 0.00 0.27 0.27 92 1010.8
20260506025519 50 0 0.0 0.0 0.00 0.27 0.27 92 1010.8
20260506025015 50 0 0.0 0.0 0.00 0.27 0.27 91 1011.1
20260506024534 50 0 0.0 0.0 0.00 0.27 0.27 91 1010.9
20260506024016 50 0 0.0 0.0 0.00 0.27 0.27 91 1010.8
20260506023519 50 0 0.0 0.0 0.00 0.27 0.27 91 1011.0
20260506023031 51 0 0.0 0.0 0.00 0.27 0.27 90 1010.7
20260506022516 51 0 0.0 0.0 0.00 0.27 0.27 90 1010.4
20260506022016 51 0 0.0 0.0 0.00 0.27 0.27 89 1010.3
20260506021528 51 0 0.0 0.0 0.00 0.27 0.27 88 1010.3
20260506021016 51 0 0.0 0.0 0.00 0.27 0.27 87 1010.1
20260506020519 52 0 0.0 0.0 0.00 0.27 0.27 87 1010.1
20260506020032 52 0 0.0 0.0 0.00 0.27 0.27 87 1010.1
20260506015516 52 0 0.0 0.0 0.00 0.27 0.27 87 1010.2
20260506015016 53 0 0.0 0.0 0.00 0.27 0.27 87 1010.1
20260506014533 53 0 0.0 0.0 0.00 0.27 0.27 88 1010.1
20260506014018 54 0 0.0 0.0 0.00 0.27 0.27 89 1009.9
20260506013518 54 0 0.0 0.0 0.00 0.27 0.27 91 1009.9
20260506013043 54 0 0.0 0.0 0.01 0.27 0.27 91 1009.8
20260506012518 54 0 0.0 0.0 0.02 0.27 0.27 92 1009.6
20260506012019 54 0 0.0 0.0 0.04 0.27 0.27 92 1009.7
20260506011541 55 0 0.0 0.0 0.06 0.27 0.27 92 1009.7
20260506011016 55 0 0.0 0.0 0.08 0.27 0.27 92 1009.6
20260506010516 55 0 0.0 0.0 0.10 0.27 0.27 92 1009.4
20260506010036 55 0 0.0 0.0 0.14 0.27 0.27 91 1009.7
20260506005516 55 0 0.0 0.0 0.15 0.27 0.27 91 1009.5
20260506005018 56 0 0.0 0.0 0.15 0.27 0.27 91 1009.6
20260506004532 56 0 0.0 0.0 0.15 0.27 0.27 90 1009.4
20260506004020 56 0 0.0 0.0 0.15 0.27 0.27 89 1009.5
20260506003518 57 0 0.0 0.0 0.15 0.27 0.27 88 1009.5
20260506003032 57 0 0.0 0.0 0.14 0.26 0.26 87 1009.4
20260506002518 58 0 0.0 0.0 0.13 0.25 0.25 87 1009.3
20260506002018 58 0 0.0 0.0 0.11 0.23 0.23 87 1009.3
20260506001535 59 0 0.0 0.0 0.09 0.21 0.21 86 1009.1
20260506001018 59 0 0.0 0.0 0.07 0.19 0.19 86 1008.7
20260506000518 60 0 0.0 0.0 0.05 0.17 0.17 86 1008.6
20260506000033 60 0 0.0 0.0 0.01 0.13 0.13 85 1008.5
20260505235518 60 0 0.0 0.0 0.00 0.12 0.12 83 1008.6
20260505235021 61 0 0.0 0.0 0.00 0.12 0.12 82 1008.1
20260505234532 61 0 0.0 0.0 0.00 0.12 0.12 82 1007.7
20260505234019 61 0 0.0 0.0 0.00 0.12 0.12 81 1007.6
20260505233519 61 0 0.0 0.0 0.00 0.12 0.12 81 1007.5
20260505233038 61 0 0.0 0.0 0.00 0.12 0.12 80 1007.4
20260505232518 62 0 0.0 0.0 0.00 0.12 0.12 81 1007.1
20260505232018 62 0 0.0 0.0 0.00 0.12 0.12 81 1006.9
20260505231530 63 0 0.0 0.0 0.00 0.12 0.12 80 1007.0
20260505231018 63 0 0.0 0.0 0.00 0.12 0.12 79 1007.0
20260505230515 64 0 0.0 0.0 0.00 0.12 0.12 79 1007.0
20260505230045 65 0 0.0 0.0 0.00 0.12 0.12 80 1007.1
20260505225517 65 0 0.0 0.0 0.00 0.12 0.12 80 1006.9
20260505225018 66 0 0.0 0.0 0.00 0.12 0.12 79 1006.6
20260505224534 67 0 0.0 0.0 0.00 0.12 0.12 77 1006.4
20260505224018 68 0 0.0 0.0 0.00 0.12 0.12 74 1006.3
20260505223522 69 0 0.0 0.0 0.00 0.12 0.12 78 1006.1
20260505223042 69 0 0.0 0.0 0.00 0.12 0.12 74 1006.2
20260505222522 68 0 0.0 0.0 0.00 0.12 0.12 76 1006.2
20260505222018 68 0 0.0 0.0 0.00 0.12 0.12 76 1006.1
20260505221544 68 0 0.0 0.0 0.00 0.12 0.12 77 1005.7
20260505221020 68 0 0.0 0.0 0.00 0.12 0.12 76 1005.7
20260505220518 68 0 0.0 0.0 0.00 0.12 0.12 74 1005.9
20260505220049 69 0 0.0 0.0 0.00 0.12 0.12 74 1006.0
20260505215518 69 0 0.0 0.0 0.00 0.12 0.12 73 1005.9
20260505215018 69 0 0.0 0.0 0.00 0.12 0.12 76 1005.7
20260505214537 68 0 0.0 0.0 0.00 0.12 0.12 78 1005.7
20260505214018 67 0 0.0 0.0 0.00 0.12 0.12 79 1005.5
20260505213523 67 0 0.0 0.0 0.00 0.12 0.12 85 1005.6
20260505213035 67 0 0.0 0.0 0.00 0.12 0.12 84 1005.3
20260505212518 66 0 0.0 0.0 0.00 0.12 0.12 82 1005.3
20260505212020 66 0 0.0 0.0 0.00 0.12 0.12 86 1005.4
20260505211542 66 0 0.0 0.0 0.00 0.12 0.12 84 1005.5
20260505211021 66 0 0.0 0.0 0.00 0.12 0.12 84 1005.4
20260505210521 65 0 0.0 0.0 0.00 0.12 0.12 83 1005.6
20260505210033 65 0 0.0 0.0 0.00 0.12 0.12 86 1005.7
20260505205519 65 0 0.0 0.0 0.00 0.12 0.12 86 1005.8
20260505205019 65 0 0.0 0.0 0.00 0.12 0.12 86 1005.7
20260505204530 64 0 0.0 0.0 0.00 0.12 0.12 87 1006.0
20260505204018 64 0 0.0 0.0 0.00 0.12 0.12 87 1006.0
20260505203518 64 0 0.0 0.0 0.01 0.12 0.12 86 1005.9
20260505203034 64 0 0.0 0.0 0.01 0.12 0.12 86 1005.9
20260505202518 65 0 0.0 0.0 0.01 0.12 0.12 88 1005.7
20260505202018 65 0 0.0 0.0 0.01 0.12 0.12 89 1005.6
20260505201533 65 0 0.0 0.0 0.01 0.12 0.12 88 1005.5
20260505201018 65 0 0.0 0.0 0.01 0.12 0.12 90 1005.4
20260505200518 65 0 0.0 0.0 0.02 0.12 0.12 90 1005.4
20260505200040 65 0 0.0 0.0 0.06 0.12 0.12 88 1005.6
20260505195517 65 0 0.0 0.0 0.10 0.12 0.12 88 1005.5
20260505195018 65 0 0.0 0.0 0.10 0.12 0.12 86 1005.5
20260505194532 64 0 0.0 0.0 0.10 0.12 0.12 87 1005.5
20260505194019 64 0 0.0 0.0 0.09 0.11 0.11 92 1005.4
20260505193519 63 0 0.0 0.0 0.09 0.11 0.11 92 1005.5
20260505193034 62 0 0.0 0.0 0.09 0.11 0.11 91 1005.6
20260505192519 61 0 0.0 0.0 0.09 0.11 0.11 89 1005.6
20260505192018 61 0 0.0 0.0 0.09 0.11 0.11 88 1005.9
20260505191541 61 0 0.0 0.0 0.09 0.11 0.11 87 1005.9
20260505191016 62 0 0.0 0.0 0.09 0.11 0.11 85 1005.3
20260505190521 63 0 0.0 0.0 0.08 0.10 0.10 81 1006.1
20260505190035 66 0 0.0 0.0 0.03 0.05 0.05 74 1006.5
20260505185517 71 0 0.0 0.0 0.00 0.02 0.02 64 1005.9
20260505185020 72 0 0.0 0.0 0.00 0.02 0.02 61 1004.6
20260505184532 72 0 0.0 0.0 0.00 0.02 0.02 60 1004.4
20260505184019 72 0 0.0 0.0 0.01 0.02 0.02 60 1004.3
20260505183518 73 0 0.0 0.0 0.01 0.02 0.02 61 1004.2
20260505183039 73 0 0.0 0.0 0.01 0.02 0.02 62 1004.3
20260505182518 73 0 0.0 0.0 0.01 0.02 0.02 60 1004.4
20260505182018 73 0 0.0 0.0 0.01 0.02 0.02 63 1004.4
20260505181530 72 0 0.0 0.0 0.01 0.02 0.02 64 1004.6
20260505181020 72 0 0.0 0.0 0.01 0.02 0.02 64 1004.6
20260505180518 71 0 0.0 0.0 0.01 0.02 0.02 66 1004.5
20260505180036 70 0 0.0 0.0 0.01 0.02 0.02 72 1004.7
20260505175518 70 0 0.0 0.0 0.01 0.02 0.02 70 1004.8
20260505175018 70 0 0.0 0.0 0.01 0.02 0.02 70 1004.6
20260505174531 71 0 0.0 0.0 0.01 0.02 0.02 63 1004.8
20260505174018 73 0 0.0 0.0 0.00 0.01 0.01 55 1004.6
20260505173518 74 0 0.0 0.0 0.00 0.01 0.01 53 1004.4
20260505173032 74 0 0.0 0.0 0.00 0.01 0.01 52 1004.4
20260505172517 74 0 0.0 0.0 0.00 0.01 0.01 54 1004.5
20260505172022 74 0 0.0 0.0 0.00 0.01 0.01 53 1004.3
20260505171532 74 0 0.0 0.0 0.00 0.01 0.01 51 1004.3
20260505171021 74 0 0.0 0.0 0.00 0.01 0.01 51 1004.4
20260505170518 75 0 0.0 0.0 0.00 0.01 0.01 53 1004.3
20260505170038 75 0 0.0 0.0 0.00 0.01 0.01 50 1004.0
20260505165518 75 0 0.0 0.0 0.00 0.01 0.01 52 1004.1
20260505165021 76 0 0.0 0.0 0.00 0.01 0.01 53 1004.0
20260505164535 76 0 0.0 0.0 0.00 0.01 0.01 52 1003.9
20260505164018 76 0 0.0 0.0 0.00 0.01 0.01 54 1003.9
20260505163518 76 0 0.0 0.0 0.00 0.01 0.01 53 1004.0
20260505163032 77 0 0.0 0.0 0.00 0.01 0.01 52 1004.0
20260505162525 77 0 0.0 0.0 0.00 0.01 0.01 52 1003.9
20260505162018 77 0 0.0 0.0 0.00 0.01 0.01 49 1003.9
20260505161610 77 0 0.0 0.0 0.00 0.01 0.01 51 1004.1
20260505161018 76 0 0.0 0.0 0.00 0.01 0.01 55 1004.2
20260505160521 76 0 0.0 0.0 0.00 0.01 0.01 53 1004.2
20260505153035 76 0 0.0 0.0 0.00 0.01 0.01 57 1004.4
20260505152518 76 0 0.0 0.0 0.00 0.01 0.01 54 1004.5
20260505152021 75 0 0.0 0.0 0.00 0.01 0.01 56 1004.7
20260505151534 75 0 0.0 0.0 0.00 0.01 0.01 55 1004.5